User: anonymous   Login
Location: eljas
(40.1958°N, 6.8661°W)
Time: 15:41:45
(UTC+01:00)
Language:

Okean O Rocket - Orbit

View from above orbital plane
View from above orbital plane
View from above satellite
View from above satellite

Ground track
Ground track

The orbit data is extracted from the following two-line orbital elements,

1 25861U 99039B   16044.88365295  .00000245  00000-0  41024-4 0  9999
2 25861  98.0373   9.0352 0014839 214.1202 198.6515 14.78273609893484
Epoch (UTC): 13 February 2016 21:12:27
Eccentricity: 0.0014839
inclination: 98.0373°
perigee height: 624 km
apogee height: 645 km
right ascension of ascending node: 9.0352°
argument of perigee: 214.1202°
revolutions per day: 14.78273609
mean anomaly at epoch: 198.6515°
orbit number at epoch: 89348

The dashed part of the orbit path shows where the satellite is in the earth's shadow,  

DLR